QPF
0.01 0.01 0.01 0.01 0.01 0.01 0.01 0.00 0.01 0.04 0.05 0.05 0.04 0.02 0.02 0.04 0.06 0.02 0.03 0.02 0.02 0.02 0.01 0.02 0.04 0.02 0.01 0.02 0.02 0.02 0.02 0.03 0.03 0.03 0.03 0.03 0.04 0.03 0.04 0.04 0.05 0.05 0.04 0.04
0.01 0.01 0.00 0.01 0.01 0.01 0.02 0.01 0.01 0.02 0.04 0.03 0.08 0.03 0.03 0.03 0.03 0.03 0.03 0.02 0.02 0.02 0.02 0.02 0.03 0.03 0.03 0.04 0.04 0.03 0.02 0.03 0.03 0.03 0.02 0.02 0.02 0.03 0.04 0.05 0.07 0.06 0.06 0.05
0.01 0.00 0.00 0.01 0.01 0.01 0.02 0.01 0.00 0.01 0.01 0.04 0.06 0.06 0.08 0.05 0.04 0.03 0.02 0.03 0.03 0.03 0.03 0.02 0.03 0.04 0.04 0.04 0.04 0.03 0.02 0.02 0.03 0.02 0.02 0.02 0.03 0.03 0.04 0.06 0.09 0.09 0.08 0.07
0.00 0.00 0.00 0.00 0.01 0.02 0.04 0.02 0.00 0.00 0.01 0.04 0.06 0.04 0.04 0.04 0.04 0.03 0.03 0.04 0.04 0.02 0.02 0.01 0.02 0.03 0.03 0.03 0.02 0.02 0.02 0.02 0.03 0.02 0.02 0.02 0.02 0.02 0.04 0.06 0.08 0.08 0.06 0.06
0.00 0.00 0.00 0.00 0.00 0.01 0.01 0.01 0.00 0.00 0.00 0.02 0.04 0.07 0.04 0.03 0.03 0.02 0.02 0.02 0.02 0.02 0.02 0.02 0.02 0.02 0.01 0.02 0.01 0.01 0.02 0.02 0.03 0.02 0.02 0.01 0.02 0.02 0.02 0.03 0.02 0.03 0.03 0.03
0.00 0.00 0.00 0.00 0.00 0.00 0.00 0.00 0.00 0.00 0.01 0.01 0.04 0.08 0.10 0.12 0.06 0.04 0.03 0.03 0.02 0.01 0.01 0.01 0.01 0.01 0.01 0.01 0.01 0.01 0.02 0.02 0.02 0.02 0.01 0.01 0.02 0.02 0.02 0.01 0.01 0.02 0.02 0.02
0.00 0.00 0.00 0.00 0.00 0.00 0.00 0.00 0.00 0.00 0.01 0.01 0.02 0.03 0.06 0.10 0.07 0.07 0.03 0.03 0.01 0.01 0.01 0.01 0.01 0.01 0.01 0.01 0.01 0.01 0.01 0.02 0.03 0.02 0.02 0.01 0.01 0.01 0.01 0.01 0.01 0.01 0.02 0.02
0.00 0.00 0.00 0.01 0.01 0.00 0.00 0.00 0.00 0.00 0.01 0.01 0.02 0.03 0.04 0.10 0.04 0.04 0.03 0.02 0.01 0.01 0.01 0.01 0.01 0.01 0.01 0.01 0.01 0.01 0.02 0.02 0.03 0.03 0.02 0.01 0.01 0.02 0.02 0.02 0.01 0.01 0.01 0.01
0.00 0.00 0.00 0.00 0.00 0.00 0.00 0.00 0.00 0.00 0.00 0.02 0.02 0.02 0.03 0.07 0.04 0.04 0.03 0.02 0.02 0.01 0.01 0.01 0.01 0.01 0.01 0.01 0.01 0.01 0.01 0.02 0.03 0.04 0.03 0.03 0.02 0.03 0.03 0.02 0.01 0.01 0.01 0.02
0.00 0.00 0.00 0.00 0.00 0.00 0.00 0.01 0.01 0.01 0.01 0.02 0.02 0.03 0.03 0.04 0.06 0.06 0.03 0.03 0.02 0.01 0.01 0.01 0.02 0.04 0.04 0.02 0.02 0.02 0.03 0.04 0.06 0.06 0.06 0.04 0.03 0.03 0.03 0.02 0.01 0.01 0.02 0.03
0.00 0.00 0.00 0.00 0.00 0.00 0.00 0.01 0.01 0.01 0.02 0.01 0.02 0.03 0.03 0.08 0.09 0.03 0.02 0.02 0.01 0.00 0.01 0.02 0.03 0.05 0.05 0.04 0.04 0.04 0.05 0.04 0.05 0.06 0.06 0.05 0.05 0.05 0.05 0.04 0.03 0.03 0.03 0.04
0.00 0.00 0.00 0.00 0.00 0.00 0.00 0.00 0.00 0.01 0.01 0.02 0.01 0.03 0.03 0.05 0.04 0.02 0.01 0.01 0.01 0.01 0.01 0.01 0.02 0.02 0.03 0.02 0.02 0.04 0.06 0.04 0.04 0.05 0.05 0.05 0.05 0.06 0.06 0.05 0.06 0.07 0.06 0.05
0.00 0.00 0.00 0.00 0.00 0.00 0.00 0.00 0.00 0.01 0.01 0.01 0.01 0.02 0.02 0.02 0.02 0.03 0.01 0.01 0.01 0.00 0.00 0.00 0.01 0.01 0.01 0.01 0.01 0.02 0.04 0.04 0.03 0.04 0.06 0.04 0.04 0.05 0.05 0.05 0.05 0.05 0.05 0.05
0.00 0.00 0.00 0.00 0.00 0.00 0.00 0.00 0.00 0.00 0.01 0.00 0.00 0.01 0.01 0.01 0.02 0.03 0.02 0.01 0.01 0.01 0.01 0.01 0.01 0.01 0.01 0.01 0.01 0.01 0.03 0.03 0.03 0.04 0.05 0.05 0.05 0.05 0.05 0.05 0.05 0.05 0.06 0.06
0.00 0.00 0.00 0.00 0.00 0.00 0.00 0.00 0.00 0.00 0.00 0.00 0.00 0.01 0.01 0.01 0.01 0.03 0.03 0.01 0.01 0.01 0.01 0.01 0.02 0.01 0.01 0.01 0.01 0.01 0.03 0.03 0.02 0.03 0.04 0.05 0.06 0.06 0.05 0.05 0.04 0.04 0.05 0.05
0.01 0.01 0.00 0.01 0.00 0.00 0.01 0.01 0.00 0.00 0.00 0.00 0.00 0.03 0.05 0.02 0.02 0.03 0.03 0.02 0.02 0.01 0.02 0.01 0.01 0.01 0.01 0.01 0.02 0.01 0.01 0.02 0.01 0.02 0.03 0.04 0.05 0.06 0.06 0.05 0.05 0.05 0.06 0.05
0.00 0.01 0.01 0.02 0.03 0.01 0.01 0.02 0.01 0.01 0.02 0.01 0.01 0.02 0.04 0.03 0.03 0.02 0.02 0.02 0.02 0.01 0.01 0.02 0.01 0.01 0.02 0.02 0.02 0.01 0.01 0.01 0.01 0.01 0.02 0.04 0.04 0.07 0.06 0.04 0.02 0.03 0.04 0.03
0.00 0.00 0.00 0.01 0.02 0.01 0.02 0.03 0.02 0.04 0.07 0.04 0.01 0.01 0.01 0.02 0.03 0.02 0.02 0.02 0.01 0.01 0.01 0.02 0.01 0.01 0.01 0.01 0.01 0.01 0.01 0.01 0.01 0.02 0.04 0.06 0.06 0.07 0.04 0.02 0.01 0.02 0.02 0.02
0.00 0.00 0.00 0.01 0.01 0.01 0.01 0.02 0.03 0.05 0.11 0.13 0.08 0.03 0.03 0.03 0.05 0.04 0.02 0.02 0.02 0.02 0.02 0.01 0.01 0.01 0.01 0.01 0.01 0.01 0.01 0.02 0.04 0.08 0.10 0.09 0.07 0.04 0.02 0.01 0.01 0.01 0.02 0.02
0.00 0.00 0.00 0.00 0.01 0.02 0.02 0.02 0.04 0.07 0.06 0.06 0.10 0.09 0.08 0.08 0.07 0.06 0.04 0.02 0.02 0.02 0.02 0.02 0.01 0.01 0.01 0.01 0.01 0.02 0.03 0.04 0.05 0.07 0.07 0.06 0.04 0.02 0.02 0.01 0.01 0.01 0.01 0.02
0.00 0.00 0.00 0.00 0.01 0.02 0.02 0.02 0.02 0.03 0.02 0.02 0.04 0.06 0.07 0.08 0.06 0.04 0.04 0.03 0.01 0.01 0.01 0.01 0.01 0.01 0.01 0.02 0.02 0.02 0.02 0.02 0.02 0.02 0.02 0.02 0.03 0.03 0.02 0.01 0.01 0.01 0.01 0.01
0.01 0.01 0.01 0.01 0.01 0.02 0.02 0.03 0.02 0.02 0.02 0.03 0.03 0.02 0.02 0.02 0.02 0.02 0.02 0.01 0.01 0.01 0.01 0.01 0.01 0.01 0.01 0.01 0.01 0.01 0.01 0.01 0.01 0.01 0.01 0.02 0.03 0.04 0.03 0.02 0.01 0.02 0.02 0.01
0.01 0.02 0.03 0.02 0.03 0.03 0.02 0.02 0.03 0.03 0.02 0.04 0.06 0.03 0.01 0.01 0.01 0.01 0.01 0.01 0.01 0.01 0.01 0.02 0.02 0.02 0.01 0.01 0.01 0.01 0.01 0.01 0.01 0.01 0.02 0.03 0.04 0.04 0.04 0.03 0.02 0.02 0.02 0.02
0.02 0.02 0.03 0.03 0.05 0.04 0.03 0.03 0.03 0.03 0.06 0.07 0.09 0.08 0.04 0.01 0.01 0.01 0.01 0.01 0.01 0.01 0.01 0.02 0.03 0.04 0.02 0.01 0.01 0.02 0.02 0.02 0.02 0.03 0.04 0.04 0.04 0.05 0.05 0.04 0.04 0.03 0.02 0.02
0.01 0.01 0.01 0.03 0.05 0.09 0.08 0.05 0.03 0.02 0.04 0.10 0.08 0.07 0.08 0.04 0.01 0.01 0.01 0.01 0.01 0.01 0.01 0.02 0.01 0.02 0.02 0.01 0.01 0.02 0.02 0.03 0.03 0.04 0.05 0.05 0.07 0.08 0.08 0.07 0.05 0.04 0.03 0.02
0.01 0.01 0.01 0.01 0.02 0.04 0.04 0.03 0.02 0.02 0.02 0.04 0.06 0.05 0.05 0.05 0.02 0.01 0.01 0.01 0.01 0.01 0.01 0.02 0.02 0.01 0.01 0.01 0.01 0.01 0.01 0.02 0.03 0.04 0.04 0.04 0.04 0.07 0.07 0.06 0.06 0.06 0.05 0.05
MSLP
1010.18 1011.16 1012.01 1012.72 1013.31 1013.80 1014.27 1014.76 1015.30 1015.90 1016.53 1017.15 1017.71 1018.16 1018.47 1018.63 1018.66 1018.59 1018.44 1018.26 1018.08 1017.89 1017.69 1017.48 1017.24 1016.97 1016.67 1016.37 1016.09 1015.84 1015.67 1015.58 1015.56 1015.60 1015.67 1015.75 1015.82 1015.86 1015.87 1015.86 1015.86 1015.89 1015.96 1016.09
1010.85 1011.63 1012.27 1012.76 1013.17 1013.57 1014.03 1014.59 1015.27 1016.05 1016.86 1017.65 1018.32 1018.82 1019.12 1019.22 1019.16 1019.00 1018.79 1018.57 1018.37 1018.20 1018.05 1017.87 1017.66 1017.40 1017.08 1016.72 1016.38 1016.07 1015.84 1015.71 1015.68 1015.72 1015.81 1015.90 1015.96 1015.97 1015.93 1015.85 1015.77 1015.72 1015.73 1015.82
1011.39 1011.96 1012.37 1012.67 1012.95 1013.28 1013.76 1014.43 1015.28 1016.25 1017.25 1018.17 1018.92 1019.43 1019.68 1019.68 1019.50 1019.23 1018.92 1018.66 1018.47 1018.34 1018.25 1018.15 1018.00 1017.77 1017.46 1017.09 1016.71 1016.35 1016.08 1015.92 1015.88 1015.92 1016.01 1016.11 1016.17 1016.15 1016.06 1015.91 1015.75 1015.61 1015.55 1015.57
1011.78 1012.15 1012.36 1012.51 1012.70 1013.03 1013.58 1014.39 1015.42 1016.58 1017.73 1018.76 1019.54 1020.01 1020.16 1020.02 1019.68 1019.26 1018.86 1018.54 1018.36 1018.28 1018.28 1018.29 1018.24 1018.09 1017.83 1017.47 1017.07 1016.69 1016.39 1016.20 1016.14 1016.18 1016.28 1016.37 1016.42 1016.38 1016.24 1016.03 1015.79 1015.57 1015.42 1015.37
1012.04 1012.24 1012.31 1012.35 1012.51 1012.88 1013.55 1014.53 1015.74 1017.07 1018.35 1019.44 1020.21 1020.59 1020.59 1020.26 1019.74 1019.15 1018.63 1018.26 1018.08 1018.07 1018.18 1018.31 1018.38 1018.33 1018.15 1017.83 1017.45 1017.06 1016.73 1016.52 1016.44 1016.46 1016.55 1016.65 1016.68 1016.63 1016.46 1016.20 1015.90 1015.60 1015.38 1015.26
1012.25 1012.30 1012.26 1012.26 1012.43 1012.89 1013.70 1014.84 1016.23 1017.69 1019.07 1020.18 1020.89 1021.15 1020.98 1020.45 1019.73 1018.97 1018.33 1017.90 1017.72 1017.78 1017.98 1018.24 1018.44 1018.51 1018.42 1018.16 1017.81 1017.42 1017.08 1016.84 1016.73 1016.73 1016.81 1016.90 1016.93 1016.87 1016.68 1016.40 1016.05 1015.71 1015.43 1015.25
1012.44 1012.39 1012.29 1012.28 1012.51 1013.07 1014.01 1015.30 1016.82 1018.39 1019.81 1020.90 1021.54 1021.66 1021.31 1020.60 1019.69 1018.78 1018.03 1017.55 1017.37 1017.47 1017.77 1018.14 1018.46 1018.64 1018.63 1018.45 1018.12 1017.74 1017.39 1017.13 1016.99 1016.97 1017.03 1017.11 1017.14 1017.08 1016.90 1016.61 1016.26 1015.90 1015.58 1015.36
1012.66 1012.54 1012.41 1012.42 1012.70 1013.35 1014.40 1015.80 1017.40 1019.02 1020.45 1021.49 1022.04 1022.05 1021.55 1020.69 1019.65 1018.63 1017.80 1017.27 1017.09 1017.24 1017.60 1018.05 1018.46 1018.73 1018.80 1018.67 1018.38 1018.01 1017.65 1017.37 1017.21 1017.17 1017.21 1017.28 1017.32 1017.27 1017.11 1016.85 1016.52 1016.17 1015.85 1015.61
1012.88 1012.73 1012.61 1012.65 1012.98 1013.69 1014.80 1016.24 1017.86 1019.46 1020.85 1021.84 1022.30 1022.22 1021.64 1020.69 1019.58 1018.51 1017.65 1017.11 1016.94 1017.11 1017.51 1018.01 1018.48 1018.80 1018.92 1018.83 1018.58 1018.23 1017.87 1017.58 1017.40 1017.34 1017.37 1017.44 1017.49 1017.46 1017.34 1017.12 1016.84 1016.52 1016.22 1015.99
1013.08 1012.94 1012.85 1012.92 1013.28 1014.01 1015.10 1016.51 1018.08 1019.61 1020.91 1021.82 1022.23 1022.10 1021.50 1020.55 1019.46 1018.42 1017.58 1017.07 1016.92 1017.09 1017.50 1018.01 1018.50 1018.84 1018.99 1018.94 1018.71 1018.39 1018.05 1017.76 1017.58 1017.51 1017.53 1017.60 1017.67 1017.67 1017.60 1017.43 1017.20 1016.94 1016.69 1016.48
1013.20 1013.14 1013.09 1013.20 1013.56 1014.25 1015.27 1016.56 1018.00 1019.39 1020.57 1021.39 1021.75 1021.63 1021.08 1020.22 1019.23 1018.28 1017.53 1017.08 1016.96 1017.15 1017.54 1018.04 1018.50 1018.85 1019.01 1018.97 1018.79 1018.50 1018.19 1017.93 1017.76 1017.70 1017.72 1017.80 1017.88 1017.91 1017.88 1017.77 1017.60 1017.40 1017.20 1017.02
1013.25 1013.29 1013.33 1013.47 1013.82 1014.42 1015.31 1016.42 1017.65 1018.85 1019.87 1020.59 1020.91 1020.83 1020.38 1019.66 1018.84 1018.06 1017.45 1017.09 1017.02 1017.21 1017.58 1018.03 1018.46 1018.78 1018.94 1018.94 1018.80 1018.56 1018.31 1018.10 1017.96 1017.92 1017.95 1018.03 1018.11 1018.17 1018.17 1018.11 1017.99 1017.85 1017.70 1017.56
1013.26 1013.45 1013.59 1013.77 1014.08 1014.57 1015.27 1016.15 1017.12 1018.08 1018.91 1019.50 1019.79 1019.76 1019.44 1018.91 1018.30 1017.71 1017.26 1017.02 1017.00 1017.20 1017.54 1017.94 1018.33 1018.62 1018.79 1018.82 1018.73 1018.57 1018.40 1018.25 1018.16 1018.14 1018.18 1018.26 1018.34 1018.41 1018.43 1018.40 1018.33 1018.23 1018.13 1018.03
1013.30 1013.65 1013.91 1014.13 1014.39 1014.75 1015.24 1015.85 1016.53 1017.22 1017.83 1018.28 1018.52 1018.54 1018.35 1018.01 1017.61 1017.23 1016.95 1016.83 1016.87 1017.07 1017.38 1017.73 1018.07 1018.34 1018.52 1018.59 1018.58 1018.51 1018.42 1018.35 1018.32 1018.33 1018.38 1018.45 1018.53 1018.58 1018.61 1018.60 1018.56 1018.50 1018.43 1018.37
1013.46 1013.98 1014.34 1014.60 1014.81 1015.02 1015.29 1015.61 1016.00 1016.40 1016.77 1017.06 1017.24 1017.28 1017.20 1017.03 1016.83 1016.64 1016.52 1016.50 1016.60 1016.80 1017.08 1017.39 1017.69 1017.95 1018.15 1018.27 1018.34 1018.36 1018.37 1018.38 1018.40 1018.45 1018.51 1018.57 1018.62 1018.66 1018.68 1018.67 1018.65 1018.62 1018.58 1018.54
1013.81 1014.46 1014.91 1015.18 1015.32 1015.39 1015.44 1015.50 1015.59 1015.71 1015.85 1015.97 1016.06 1016.11 1016.11 1016.07 1016.02 1015.99 1016.00 1016.07 1016.21 1016.41 1016.66 1016.93 1017.21 1017.46 1017.68 1017.86 1018.01 1018.13 1018.23 1018.32 1018.40 1018.47 1018.53 1018.58 1018.60 1018.62 1018.61 1018.60 1018.59 1018.58 1018.57 1018.55
1014.35 1015.07 1015.55 1015.81 1015.88 1015.81 1015.66 1015.48 1015.31 1015.19 1015.11 1015.08 1015.08 1015.11 1015.15 1015.21 1015.27 1015.35 1015.46 1015.59 1015.75 1015.95 1016.17 1016.42 1016.67 1016.92 1017.16 1017.40 1017.62 1017.82 1018.00 1018.15 1018.28 1018.37 1018.43 1018.46 1018.47 1018.45 1018.44 1018.42 1018.41 1018.42 1018.43 1018.43
1015.01 1015.72 1016.17 1016.38 1016.36 1016.17 1015.85 1015.48 1015.11 1014.79 1014.54 1014.38 1014.30 1014.31 1014.37 1014.48 1014.62 1014.78 1014.94 1015.12 1015.30 1015.48 1015.68 1015.90 1016.13 1016.39 1016.65 1016.93 1017.20 1017.47 1017.71 1017.91 1018.07 1018.18 1018.24 1018.25 1018.24 1018.21 1018.18 1018.16 1018.16 1018.18 1018.20 1018.22
1015.62 1016.24 1016.61 1016.73 1016.62 1016.32 1015.88 1015.38 1014.88 1014.43 1014.07 1013.83 1013.70 1013.69 1013.77 1013.91 1014.10 1014.30 1014.51 1014.71 1014.89 1015.07 1015.26 1015.45 1015.67 1015.92 1016.20 1016.50 1016.81 1017.11 1017.39 1017.62 1017.80 1017.92 1017.98 1017.99 1017.96 1017.93 1017.89 1017.88 1017.88 1017.91 1017.94 1017.96
1016.01 1016.47 1016.70 1016.71 1016.51 1016.13 1015.63 1015.07 1014.51 1014.01 1013.61 1013.34 1013.20 1013.19 1013.29 1013.47 1013.70 1013.94 1014.17 1014.39 1014.58 1014.76 1014.93 1015.11 1015.32 1015.56 1015.84 1016.14 1016.46 1016.78 1017.07 1017.32 1017.51 1017.63 1017.69 1017.71 1017.69 1017.65 1017.62 1017.61 1017.62 1017.64 1017.67 1017.68
1016.01 1016.28 1016.36 1016.25 1015.97 1015.54 1015.03 1014.47 1013.93 1013.45 1013.09 1012.84 1012.74 1012.77 1012.90 1013.12 1013.38 1013.65 1013.91 1014.15 1014.36 1014.54 1014.71 1014.89 1015.08 1015.31 1015.57 1015.86 1016.17 1016.48 1016.77 1017.02 1017.21 1017.34 1017.41 1017.43 1017.42 1017.40 1017.37 1017.36 1017.37 1017.38 1017.39 1017.38
1015.56 1015.62 1015.55 1015.34 1015.01 1014.58 1014.10 1013.60 1013.14 1012.75 1012.47 1012.30 1012.27 1012.35 1012.54 1012.80 1013.09 1013.40 1013.69 1013.96 1014.19 1014.39 1014.57 1014.74 1014.93 1015.14 1015.38 1015.65 1015.93 1016.22 1016.48 1016.72 1016.91 1017.04 1017.12 1017.16 1017.17 1017.16 1017.14 1017.12 1017.11 1017.09 1017.06 1017.01
1014.68 1014.56 1014.36 1014.08 1013.73 1013.34 1012.94 1012.55 1012.21 1011.95 1011.78 1011.72 1011.77 1011.92 1012.16 1012.47 1012.81 1013.15 1013.48 1013.77 1014.03 1014.25 1014.45 1014.63 1014.81 1015.01 1015.22 1015.45 1015.70 1015.95 1016.19 1016.40 1016.58 1016.72 1016.82 1016.87 1016.89 1016.89 1016.87 1016.83 1016.79 1016.72 1016.64 1016.53
1013.49 1013.25 1012.96 1012.65 1012.33 1012.01 1011.71 1011.45 1011.25 1011.12 1011.07 1011.12 1011.26 1011.48 1011.77 1012.11 1012.48 1012.85 1013.21 1013.54 1013.84 1014.09 1014.31 1014.50 1014.68 1014.86 1015.04 1015.23 1015.43 1015.64 1015.84 1016.03 1016.20 1016.34 1016.44 1016.51 1016.55 1016.55 1016.51 1016.45 1016.36 1016.23 1016.08 1015.90
1012.18 1011.86 1011.54 1011.24 1010.97 1010.74 1010.56 1010.43 1010.37 1010.36 1010.43 1010.56 1010.76 1011.03 1011.35 1011.71 1012.10 1012.49 1012.88 1013.24 1013.57 1013.85 1014.09 1014.30 1014.48 1014.64 1014.79 1014.94 1015.09 1015.25 1015.42 1015.58 1015.73 1015.86 1015.98 1016.05 1016.09 1016.09 1016.03 1015.93 1015.79 1015.59 1015.36 1015.11
1010.94 1010.60 1010.29 1010.03 1009.83 1009.70 1009.63 1009.62 1009.66 1009.76 1009.90 1010.09 1010.33 1010.61 1010.93 1011.29 1011.68 1012.08 1012.48 1012.86 1013.21 1013.53 1013.79 1014.01 1014.19 1014.34 1014.46 1014.56 1014.67 1014.78 1014.90 1015.03 1015.16 1015.29 1015.40 1015.48 1015.52 1015.50 1015.43 1015.28 1015.08 1014.82 1014.52 1014.20
Thickness
5839 5819 5807 5815 5822 5821 5814 5805 5802 5811 5828 5816 5806 5803 5809 5814 5813 5808 5805 5804 5803 5803 5806 5806 5804 5802 5797 5793 5790 5787 5784 5782 5781 5777 5774 5771 5769 5769 5769 5770 5769 5769 5768 5767
5817 5812 5831 5838 5836 5828 5818 5805 5804 5813 5825 5815 5802 5802 5809 5811 5810 5810 5808 5806 5805 5802 5802 5802 5801 5798 5794 5791 5788 5786 5784 5781 5779 5777 5775 5773 5771 5769 5768 5768 5768 5768 5766 5765
5810 5826 5845 5837 5828 5819 5814 5806 5807 5806 5814 5813 5801 5788 5797 5806 5811 5811 5810 5809 5807 5805 5801 5800 5798 5795 5793 5790 5788 5787 5783 5781 5779 5777 5774 5771 5768 5766 5764 5764 5764 5765 5764 5763
5820 5837 5839 5830 5826 5822 5806 5825 5822 5816 5797 5782 5791 5762 5782 5794 5798 5803 5805 5806 5806 5806 5803 5800 5797 5794 5792 5790 5789 5786 5783 5780 5778 5775 5771 5767 5763 5760 5761 5761 5761 5762 5762 5761
5816 5833 5831 5824 5830 5832 5822 5834 5826 5815 5796 5780 5782 5765 5772 5791 5788 5794 5801 5805 5807 5807 5804 5800 5798 5796 5793 5791 5787 5784 5781 5778 5776 5774 5770 5766 5763 5761 5760 5760 5758 5758 5758 5759
5826 5842 5841 5836 5843 5842 5836 5825 5814 5800 5782 5758 5771 5764 5763 5780 5789 5797 5802 5806 5808 5807 5805 5801 5799 5796 5792 5789 5785 5782 5778 5775 5774 5771 5769 5765 5761 5759 5756 5755 5754 5754 5754 5755
5808 5825 5840 5845 5828 5831 5824 5792 5765 5759 5747 5749 5770 5764 5768 5794 5804 5806 5805 5806 5809 5808 5804 5799 5795 5791 5788 5785 5783 5780 5776 5773 5771 5769 5766 5764 5761 5758 5755 5753 5751 5750 5749 5750
5784 5789 5823 5835 5826 5814 5813 5793 5761 5746 5739 5746 5762 5757 5777 5803 5809 5812 5811 5809 5808 5805 5802 5798 5796 5792 5788 5785 5782 5778 5774 5771 5769 5767 5764 5762 5760 5757 5755 5752 5751 5749 5748 5748
5782 5787 5825 5836 5839 5827 5808 5795 5793 5766 5754 5740 5746 5763 5783 5801 5801 5803 5804 5804 5802 5801 5799 5796 5794 5791 5787 5784 5781 5777 5773 5770 5767 5765 5762 5760 5758 5756 5753 5751 5749 5747 5746 5746
5798 5786 5808 5827 5831 5827 5819 5805 5780 5760 5739 5729 5739 5749 5756 5778 5786 5792 5794 5794 5795 5797 5795 5793 5791 5788 5785 5782 5778 5775 5771 5768 5765 5763 5760 5758 5755 5753 5751 5749 5746 5745 5744 5743
5800 5781 5789 5802 5800 5798 5803 5795 5778 5757 5751 5731 5723 5740 5781 5783 5788 5789 5792 5793 5793 5792 5791 5789 5787 5785 5782 5779 5775 5771 5768 5764 5762 5760 5757 5755 5752 5750 5748 5745 5744 5742 5741 5740
5793 5774 5765 5783 5807 5815 5804 5793 5776 5754 5746 5740 5730 5743 5793 5791 5791 5791 5790 5790 5790 5790 5788 5785 5782 5779 5776 5773 5770 5767 5764 5761 5759 5757 5754 5751 5748 5746 5743 5741 5740 5739 5737 5736
5789 5765 5747 5755 5772 5791 5790 5790 5781 5764 5748 5735 5728 5744 5785 5786 5785 5788 5787 5786 5784 5783 5781 5778 5775 5772 5769 5768 5765 5762 5760 5758 5756 5754 5750 5746 5743 5741 5739 5737 5736 5734 5733 5731
5791 5758 5746 5739 5748 5766 5771 5778 5779 5762 5740 5736 5741 5749 5766 5772 5775 5779 5780 5780 5779 5777 5775 5771 5768 5766 5764 5763 5760 5758 5756 5754 5752 5749 5746 5742 5739 5737 5735 5733 5731 5729 5728 5726
5776 5753 5756 5758 5767 5771 5770 5771 5774 5766 5756 5745 5747 5751 5761 5769 5773 5776 5776 5775 5773 5769 5767 5765 5763 5760 5759 5758 5756 5754 5752 5750 5748 5744 5741 5738 5736 5734 5731 5728 5726 5724 5723 5722
5760 5749 5750 5750 5763 5763 5760 5765 5768 5766 5762 5755 5753 5751 5767 5771 5771 5769 5769 5769 5766 5763 5762 5762 5760 5757 5755 5754 5752 5749 5746 5744 5742 5739 5736 5734 5731 5728 5725 5723 5721 5719 5717 5716
5744 5738 5729 5726 5745 5748 5736 5753 5758 5757 5758 5753 5743 5750 5761 5759 5761 5760 5761 5762 5761 5759 5759 5758 5756 5753 5751 5749 5748 5744 5741 5739 5735 5732 5730 5728 5725 5722 5720 5719 5716 5713 5711 5710
5737 5727 5714 5714 5723 5711 5733 5759 5761 5754 5752 5754 5752 5754 5756 5756 5759 5760 5760 5756 5754 5754 5754 5753 5752 5750 5747 5745 5743 5740 5736 5733 5729 5726 5723 5721 5718 5716 5714 5711 5709 5707 5705 5703
5740 5724 5708 5699 5699 5710 5733 5749 5750 5742 5735 5746 5745 5748 5750 5752 5750 5747 5753 5753 5751 5751 5750 5749 5748 5745 5743 5740 5737 5733 5729 5726 5722 5719 5717 5715 5713 5710 5708 5705 5702 5701 5699 5697
5729 5721 5705 5695 5694 5692 5716 5744 5754 5742 5719 5739 5741 5740 5741 5740 5724 5729 5742 5744 5745 5746 5745 5744 5743 5740 5735 5733 5731 5725 5721 5718 5715 5714 5712 5710 5708 5705 5702 5699 5697 5695 5693 5690
5705 5700 5694 5690 5688 5698 5723 5740 5741 5710 5710 5731 5734 5733 5733 5728 5726 5732 5736 5737 5740 5740 5739 5738 5736 5731 5728 5726 5723 5717 5714 5712 5711 5709 5707 5704 5702 5700 5697 5694 5692 5689 5687 5684
5690 5685 5683 5681 5678 5688 5724 5727 5715 5712 5724 5726 5727 5729 5728 5727 5727 5728 5729 5730 5731 5731 5731 5730 5726 5722 5721 5718 5715 5710 5707 5707 5706 5703 5700 5697 5695 5694 5692 5688 5685 5683 5680 5677
5689 5689 5685 5685 5688 5706 5718 5718 5720 5720 5717 5719 5721 5724 5725 5722 5721 5721 5720 5721 5722 5723 5722 5721 5718 5715 5713 5711 5709 5704 5703 5701 5698 5695 5692 5690 5688 5686 5684 5681 5678 5676 5673 5671
5689 5695 5687 5685 5695 5704 5711 5715 5716 5717 5715 5717 5717 5718 5718 5715 5714 5712 5712 5712 5713 5714 5713 5712 5709 5707 5705 5704 5702 5700 5697 5695 5692 5688 5684 5682 5679 5677 5676 5674 5672 5669 5667 5664
5683 5684 5679 5679 5688 5695 5702 5706 5709 5710 5711 5711 5712 5713 5710 5709 5707 5706 5704 5704 5705 5705 5704 5704 5701 5699 5698 5698 5696 5694 5692 5689 5685 5681 5677 5674 5672 5670 5668 5667 5666 5664 5663 5661
5678 5676 5672 5673 5685 5685 5689 5699 5704 5703 5702 5703 5703 5703 5703 5703 5700 5699 5698 5698 5698 5698 5696 5695 5693 5692 5691 5690 5688 5688 5686 5683 5679 5674 5671 5668 5665 5664 5661 5659 5658 5659 5657 5656